FW2068 Weather Reports


Display with metric or nautical units.
time (UTC)temp
F
wind
direction
speed
MPH
gust
MPH
rain 1hr
in
rain 24hr
in
rain mn
in
humidity
%
barometer
mb
20260507164211 69 305 1.0 4.0 0.00 0.00 0.00 57 1018.9
20260507163708 69 343 1.0 4.0 0.00 0.00 0.00 58 1019.2
20260507163206 68 326 2.0 6.0 0.00 0.00 0.00 61 1019.2
20260507162702 68 333 2.0 4.0 0.00 0.00 0.00 63 1019.2
20260507162158 67 350 4.0 4.0 0.00 0.00 0.00 63 1019.3
20260507161654 67 307 4.0 4.0 0.00 0.00 0.00 62 1019.3
20260507161150 67 41 1.0 4.0 0.00 0.00 0.00 64 1019.0
20260507160647 67 69 0.0 4.0 0.00 0.00 0.00 65 1019.2
20260507160144 67 298 4.0 5.0 0.00 0.00 0.00 65 1018.9
20260507155639 68 5 2.0 5.0 0.00 0.00 0.00 65 1019.2
20260507155136 68 95 1.0 4.0 0.00 0.00 0.00 65 1018.9
20260507154633 66 290 4.0 4.0 0.00 0.00 0.00 67 1018.9
20260507154131 66 42 2.0 4.0 0.00 0.00 0.00 66 1019.1
20260507153626 67 272 1.0 6.0 0.00 0.00 0.00 67 1019.2
20260507153123 66 302 2.0 4.0 0.00 0.00 0.00 67 1019.4
20260507152620 66 21 1.0 4.0 0.00 0.00 0.00 66 1019.4
20260507152116 64 285 4.0 5.0 0.00 0.00 0.00 70 1019.6
20260507151612 64 297 3.0 4.0 0.00 0.00 0.00 68 1019.7
20260507151109 65 241 2.0 4.0 0.00 0.00 0.00 68 1019.6
20260507150606 63 339 2.0 4.0 0.00 0.00 0.00 72 1019.5
20260507145557 64 290 2.0 4.0 0.00 0.00 0.00 73 1019.6
20260507145050 63 83 0.0 5.0 0.00 0.00 0.00 75 1019.6
20260507144546 64 207 2.0 2.0 0.00 0.00 0.00 73 1019.6
20260507144044 63 274 1.0 3.0 0.00 0.00 0.00 74 1019.8
20260507143540 62 27 2.0 4.0 0.00 0.00 0.00 76 1019.5
20260507143038 62 287 3.0 6.0 0.00 0.00 0.00 74 1019.4
20260507142533 62 169 2.0 5.0 0.00 0.00 0.00 75 1019.7
20260507142031 63 318 2.0 4.0 0.00 0.00 0.00 73 1019.7
20260507141527 62 260 0.0 3.0 0.00 0.00 0.00 76 1019.8
20260507141024 61 346 1.0 3.0 0.00 0.00 0.00 79 1019.8
20260507140521 61 316 2.0 4.0 0.00 0.00 0.00 77 1019.8
20260507140018 60 296 2.0 5.0 0.00 0.00 0.00 81 1019.7
20260507135514 59 295 3.0 4.0 0.00 0.00 0.00 83 1020.3
20260507135012 59 282 0.0 2.0 0.00 0.00 0.00 85 1020.1
20260507134508 58 306 2.0 4.0 0.00 0.00 0.00 85 1020.3
20260507134004 58 326 2.0 4.0 0.00 0.00 0.00 84 1020.3
20260507133500 58 306 2.0 3.0 0.00 0.00 0.00 82 1020.1
20260507132959 59 309 1.0 2.0 0.00 0.00 0.00 81 1020.3
20260507132455 58 322 0.0 1.0 0.00 0.00 0.00 82 1020.1
20260507131951 57 0 2.0 2.0 0.00 0.00 0.00 85 1020.0
20260507131448 56 55 0.0 2.0 0.00 0.00 0.00 87 1020.3
20260507130945 56 344 2.0 4.0 0.00 0.00 0.00 87 1020.5
20260507130442 56 288 1.0 3.0 0.00 0.00 0.00 87 1020.1
20260507125941 55 30 0.0 2.0 0.00 0.00 0.00 88 1020.1
20260507125439 55 309 0.0 3.0 0.00 0.00 0.00 89 1020.1
20260507124936 54 298 2.0 3.0 0.00 0.00 0.00 89 1020.3
20260507124432 54 278 0.0 2.0 0.00 0.00 0.00 90 1020.1
20260507123930 54 34 0.0 1.0 0.00 0.00 0.00 91 1019.9
20260507123427 54 10 0.0 1.0 0.00 0.00 0.00 91 1019.7
20260507122923 53 325 0.0 2.0 0.00 0.00 0.00 92 1019.6
20260507122419 53 330 1.0 1.0 0.00 0.00 0.00 92 1019.9
20260507121915 53 350 0.0 2.0 0.00 0.00 0.00 93 1019.9
20260507121410 53 345 1.0 2.0 0.00 0.00 0.00 93 1019.9
20260507120907 53 169 0.0 1.0 0.00 0.00 0.00 93 1019.7
20260507120404 52 173 0.0 1.0 0.00 0.00 0.00 93 1019.7
20260507115900 52 232 0.0 2.0 0.00 0.00 0.00 93 1019.7
20260507115356 52 33 0.0 2.0 0.00 0.00 0.00 93 1019.7
20260507114852 52 337 2.0 2.0 0.00 0.00 0.00 93 1019.5
20260507114349 52 328 2.0 2.0 0.00 0.00 0.00 94 1019.5
20260507113846 52 276 1.0 3.0 0.00 0.00 0.00 94 1019.4
20260507113343 52 0 0.0 2.0 0.00 0.00 0.00 94 1019.2
20260507112841 52 76 0.0 2.0 0.00 0.00 0.00 93 1019.2
20260507112337 52 272 1.0 1.0 0.00 0.00 0.00 93 1019.0
20260507111836 52 314 0.0 2.0 0.00 0.00 0.00 93 1019.1
20260507111332 52 358 0.0 1.0 0.00 0.00 0.00 93 1019.3
20260507110828 52 301 0.0 2.0 0.00 0.00 0.00 93 1019.2
20260507110324 52 330 0.0 1.0 0.00 0.00 0.00 92 1018.8
20260507105821 52 296 1.0 2.0 0.00 0.00 0.00 92 1018.8
20260507105318 52 319 1.0 2.0 0.00 0.00 0.00 92 1018.5
20260507104815 53 337 0.0 2.0 0.00 0.00 0.00 92 1018.3
20260507104311 52 334 2.0 4.0 0.00 0.00 0.00 92 1017.8
20260507103807 52 2 1.0 3.0 0.00 0.00 0.00 92 1017.9
20260507103304 53 295 2.0 4.0 0.00 0.00 0.00 92 1017.8
20260507102801 52 323 2.0 4.0 0.00 0.00 0.00 92 1017.5
20260507102257 52 324 2.0 3.0 0.00 0.00 0.00 92 1017.5
20260507101754 52 18 3.0 3.0 0.00 0.00 0.00 92 1017.3
20260507101253 52 336 0.0 3.0 0.00 0.00 0.00 92 1017.7
20260507100751 53 208 0.0 4.0 0.00 0.00 0.00 92 1017.8
20260507100249 53 53 0.0 2.0 0.00 0.00 0.00 92 1017.5
20260507095747 53 321 0.0 2.0 0.00 0.00 0.00 92 1017.7
20260507095243 53 15 2.0 2.0 0.00 0.00 0.00 92 1017.7
20260507094740 53 13 0.0 2.0 0.00 0.00 0.00 92 1017.7
20260507094237 53 13 0.0 2.0 0.00 0.00 0.00 92 1017.6
20260507093734 53 339 2.0 2.0 0.00 0.00 0.00 92 1017.9
20260507093232 53 122 0.0 3.0 0.00 0.00 0.00 92 1017.6
20260507092730 53 342 1.0 3.0 0.00 0.00 0.00 92 1017.5
20260507092225 53 43 3.0 3.0 0.00 0.00 0.00 92 1017.7
20260507091722 53 320 0.0 2.0 0.00 0.00 0.00 92 1017.5
20260507091219 53 318 2.0 4.0 0.00 0.00 0.00 92 1017.4
20260507090714 53 356 2.0 3.0 0.00 0.00 0.00 92 1017.4
20260507090211 53 204 0.0 2.0 0.00 0.00 0.00 92 1017.3
20260507085708 53 55 0.0 2.0 0.00 0.00 0.00 92 1017.4
20260507085205 53 5 1.0 2.0 0.00 0.00 0.00 93 1017.6
20260507084702 53 25 1.0 4.0 0.00 0.00 0.00 93 1017.3
20260507084158 53 61 1.0 2.0 0.00 0.00 0.00 93 1017.2
20260507083655 53 307 2.0 4.0 0.00 0.00 0.00 93 1017.2
20260507083152 53 12 1.0 3.0 0.00 0.00 0.00 93 1017.3
20260507082648 53 27 2.0 4.0 0.00 0.00 0.00 93 1017.2
20260507082144 53 283 0.0 2.0 0.00 0.00 0.00 93 1017.1
20260507081641 53 314 0.0 3.0 0.00 0.00 0.00 93 1017.1
20260507081137 53 102 0.0 3.0 0.00 0.00 0.00 94 1017.1
20260507080634 53 113 1.0 2.0 0.00 0.00 0.00 93 1017.0
20260507080131 53 228 0.0 2.0 0.00 0.00 0.00 93 1016.8
20260507075631 54 86 1.0 3.0 0.00 0.00 0.00 93 1016.9
20260507075127 54 7 3.0 4.0 0.00 0.00 0.00 94 1016.7
20260507074624 54 175 0.0 2.0 0.00 0.00 0.00 94 1016.6
20260507074122 54 99 0.0 2.0 0.00 0.00 0.00 94 1016.7
20260507073618 54 34 0.0 3.0 0.00 0.00 0.00 93 1016.6
20260507073114 54 0 3.0 3.0 0.00 0.00 0.00 93 1016.8
20260507072613 54 52 1.0 2.0 0.00 0.00 0.00 93 1016.5
20260507072109 54 299 0.0 3.0 0.00 0.00 0.00 93 1016.7
20260507071607 54 252 0.0 3.0 0.00 0.00 0.00 93 1016.6
20260507071103 54 74 2.0 2.0 0.00 0.00 0.00 93 1016.6
20260507070600 54 115 2.0 2.0 0.00 0.00 0.00 93 1016.5
20260507070057 55 124 0.0 3.0 0.00 0.00 0.00 93 1016.6
20260507065553 55 15 0.0 2.0 0.00 0.00 0.00 93 1016.6
20260507065051 55 174 0.0 3.0 0.00 0.00 0.00 93 1016.7
20260507064549 55 166 0.0 2.0 0.00 0.00 0.00 93 1016.6
20260507064047 55 59 1.0 2.0 0.00 0.00 0.00 92 1016.8
20260507063544 55 178 1.0 2.0 0.00 0.00 0.00 92 1016.8
20260507063041 55 151 0.0 3.0 0.00 0.00 0.00 92 1016.9
20260507062537 55 96 2.0 4.0 0.00 0.00 0.00 92 1016.8
20260507062035 55 125 0.0 4.0 0.00 0.00 0.00 92 1016.6
20260507061533 55 114 1.0 5.0 0.00 0.00 0.00 92 1016.7
20260507061031 55 92 2.0 6.0 0.00 0.00 0.00 92 1016.5
20260507060528 56 99 2.0 6.0 0.00 0.00 0.00 91 1016.7
20260507060025 56 95 2.0 6.0 0.00 0.00 0.00 91 1016.6
20260507055525 56 325 0.0 4.0 0.00 0.00 0.00 91 1016.6
20260507055022 56 98 3.0 6.0 0.00 0.00 0.00 91 1016.6
20260507054518 56 343 2.0 4.0 0.00 0.00 0.00 91 1016.8
20260507054015 56 78 3.0 3.0 0.00 0.00 0.00 90 1016.9
20260507053513 56 109 1.0 2.0 0.00 0.00 0.00 90 1016.7
20260507053012 56 20 0.0 3.0 0.00 0.00 0.00 90 1016.8
20260507052509 56 123 2.0 3.0 0.00 0.00 0.00 89 1016.8
20260507052005 57 55 2.0 4.0 0.00 0.00 0.00 89 1016.8
20260507051503 57 87 1.0 3.0 0.00 0.00 0.00 88 1016.8
20260507051000 57 193 2.0 5.0 0.00 0.00 0.00 88 1016.8
20260507050456 57 66 2.0 5.0 0.00 0.00 0.00 87 1016.8
20260507045953 57 131 0.0 4.0 0.00 0.09 0.09 87 1016.9
20260507045449 57 81 1.0 4.0 0.00 0.09 0.09 86 1017.0
20260507044947 57 130 0.0 3.0 0.00 0.09 0.09 86 1016.9
20260507044443 58 337 2.0 3.0 0.00 0.09 0.09 85 1017.0
20260507043940 58 112 0.0 4.0 0.00 0.09 0.09 85 1017.0
20260507043436 58 336 1.0 4.0 0.00 0.09 0.09 85 1017.0
20260507042932 58 27 4.0 5.0 0.00 0.09 0.09 84 1017.1
20260507042429 58 48 2.0 5.0 0.00 0.09 0.09 84 1017.0
20260507041925 58 322 2.0 4.0 0.00 0.09 0.09 84 1017.3
20260507041422 58 336 2.0 5.0 0.00 0.09 0.09 84 1017.5
20260507040919 58 350 2.0 4.0 0.00 0.09 0.09 84 1017.3
20260507040415 58 141 2.0 5.0 0.00 0.09 0.09 84 1017.3
20260507035911 58 210 2.0 8.0 0.00 0.09 0.09 85 1017.3
20260507035407 58 231 2.0 4.0 0.00 0.09 0.09 85 1017.1
20260507034904 58 280 2.0 4.0 0.00 0.09 0.09 85 1017.2
20260507034401 58 292 3.0 5.0 0.00 0.09 0.09 84 1017.2
20260507033859 58 349 3.0 4.0 0.00 0.09 0.09 85 1017.0
20260507033357 58 160 2.0 4.0 0.00 0.09 0.09 85 1017.1
20260507032853 58 357 2.0 4.0 0.00 0.09 0.09 85 1017.0
20260507032350 58 18 3.0 5.0 0.00 0.09 0.09 85 1016.9
20260507031846 58 33 1.0 2.0 0.00 0.09 0.09 85 1016.7
20260507031343 58 251 2.0 5.0 0.00 0.09 0.09 84 1016.6
20260507030840 58 239 2.0 6.0 0.00 0.09 0.09 84 1016.8
20260507030338 58 165 2.0 4.0 0.00 0.09 0.09 84 1016.5
20260507025834 58 257 2.0 5.0 0.00 0.09 0.09 85 1016.6
20260507025332 58 275 2.0 4.0 0.00 0.09 0.09 85 1016.4
20260507024829 58 349 1.0 5.0 0.00 0.09 0.09 86 1016.3
20260507024326 58 55 4.0 5.0 0.00 0.09 0.09 87 1016.4
20260507023822 58 272 2.0 5.0 0.00 0.09 0.09 87 1016.2
20260507023319 58 4 1.0 4.0 0.00 0.09 0.09 87 1016.0
20260507022816 58 272 3.0 7.0 0.00 0.09 0.09 87 1016.1
20260507022312 58 1 4.0 8.0 0.00 0.09 0.09 87 1015.9
20260507021809 58 318 2.0 5.0 0.00 0.09 0.09 87 1015.8
20260507021304 58 321 5.0 5.0 0.00 0.09 0.09 87 1015.7
20260507020803 58 84 3.0 4.0 0.00 0.09 0.09 87 1015.8
20260507020259 58 358 0.0 4.0 0.00 0.09 0.09 87 1015.7
20260507015756 58 329 2.0 5.0 0.00 0.09 0.09 87 1015.8
20260507015254 58 303 2.0 9.0 0.00 0.09 0.09 88 1015.3
20260507014750 58 68 2.0 4.0 0.00 0.09 0.09 88 1015.3
20260507014247 58 322 1.0 4.0 0.00 0.09 0.09 88 1015.1
20260507013743 58 283 0.0 3.0 0.00 0.09 0.09 88 1014.9
20260507013241 58 330 0.0 4.0 0.00 0.09 0.09 88 1015.0
20260507012738 58 315 2.0 4.0 0.00 0.09 0.09 88 1014.8
20260507012233 58 224 0.0 3.0 0.00 0.09 0.09 88 1014.9
20260507011732 58 87 1.0 4.0 0.00 0.09 0.09 88 1014.7
20260507011228 58 204 2.0 4.0 0.00 0.09 0.09 88 1014.7
20260507010727 58 318 1.0 5.0 0.00 0.09 0.09 88 1014.5
20260507010223 58 92 2.0 4.0 0.00 0.09 0.09 88 1014.8
20260507005721 58 84 3.0 5.0 0.00 0.09 0.09 87 1014.4
20260507005217 58 259 1.0 5.0 0.00 0.09 0.09 87 1014.7
20260507004714 58 305 2.0 7.0 0.00 0.09 0.09 87 1014.5
20260507004212 58 0 4.0 6.0 0.00 0.09 0.09 87 1014.3
20260507003708 58 276 0.0 2.0 0.00 0.09 0.09 87 1014.5
20260507003203 58 279 3.0 6.0 0.00 0.09 0.09 87 1014.4
20260507002659 58 343 2.0 4.0 0.00 0.09 0.09 87 1014.2
20260507002155 58 165 1.0 4.0 0.00 0.09 0.09 87 1014.0
20260507001652 58 296 4.0 5.0 0.00 0.09 0.09 86 1014.1
20260507001150 58 238 0.0 2.0 0.00 0.09 0.09 87 1014.3
20260507000646 58 143 1.0 3.0 0.00 0.09 0.09 87 1014.0
20260507000141 58 346 3.0 5.0 0.00 0.09 0.09 86 1013.7
20260506235639 58 39 2.0 3.0 0.00 0.09 0.09 86 1013.9
20260506235139 58 62 2.0 4.0 0.00 0.09 0.09 86 1013.9
20260506234637 58 312 2.0 5.0 0.00 0.09 0.09 86 1014.0
20260506234133 58 283 2.0 4.0 0.00 0.09 0.09 87 1014.1
20260506233630 58 326 0.0 4.0 0.00 0.09 0.09 86 1014.4
20260506233128 58 1 3.0 4.0 0.00 0.09 0.09 87 1014.1
20260506232623 58 21 0.0 10.0 0.00 0.09 0.09 86 1013.7
20260506232119 58 315 2.0 6.0 0.00 0.09 0.09 86 1013.9
20260506231616 58 304 2.0 4.0 0.00 0.09 0.09 87 1013.7
20260506231115 58 307 2.0 6.0 0.00 0.09 0.09 87 1013.7
20260506230611 58 251 1.0 5.0 0.00 0.09 0.09 87 1013.6
20260506230109 58 297 3.0 4.0 0.00 0.09 0.09 87 1013.6
20260506225605 58 317 6.0 6.0 0.00 0.09 0.09 86 1013.6
20260506225101 58 355 4.0 9.0 0.00 0.09 0.09 86 1014.0
20260506224558 59 10 2.0 6.0 0.00 0.09 0.09 86 1013.9
20260506224055 59 336 2.0 7.0 0.00 0.09 0.09 86 1013.5
20260506223551 59 340 7.0 9.0 0.00 0.09 0.09 86 1013.2
20260506223047 59 329 4.0 6.0 0.00 0.09 0.09 86 1013.2
20260506222544 59 314 4.0 6.0 0.00 0.09 0.09 86 1013.0
20260506222040 59 343 3.0 5.0 0.00 0.09 0.09 86 1013.1
20260506221538 59 342 2.0 5.0 0.00 0.09 0.09 86 1013.4
20260506221036 59 293 2.0 5.0 0.00 0.09 0.09 87 1013.1
20260506220532 59 2 3.0 5.0 0.00 0.09 0.09 87 1013.3
20260506220027 59 323 2.0 6.0 0.00 0.09 0.09 88 1013.0
20260506215525 59 308 4.0 5.0 0.00 0.09 0.09 88 1013.1
20260506215020 59 330 4.0 8.0 0.00 0.09 0.09 88 1012.8
20260506214517 59 75 2.0 4.0 0.00 0.09 0.09 89 1012.7
20260506214014 59 329 3.0 6.0 0.00 0.09 0.09 89 1012.9
20260506213513 59 330 3.0 6.0 0.00 0.09 0.09 89 1013.0
20260506213009 59 354 2.0 6.0 0.00 0.09 0.09 90 1013.0
20260506212506 59 0 2.0 4.0 0.00 0.09 0.09 90 1013.0
20260506212001 58 236 0.0 6.0 0.00 0.09 0.09 90 1012.8
20260506211457 58 335 3.0 4.0 0.00 0.09 0.09 90 1013.4
20260506210954 58 104 2.0 4.0 0.00 0.09 0.09 90 1013.3
20260506210450 58 341 2.0 4.0 0.02 0.09 0.09 90 1013.3
20260506205948 58 282 2.0 6.0 0.12 0.09 0.09 90 1013.4
20260506205444 58 303 1.0 4.0 0.14 0.09 0.09 90 1013.5
20260506204940 57 357 3.0 4.0 0.19 0.07 0.07 89 1014.0
20260506204438 58 342 2.0 4.0 0.19 0.07 0.07 89 1013.4
20260506203935 58 313 3.0 5.0 0.12 0.04 0.04 88 1013.6
20260506203432 58 305 3.0 10.0 0.05 0.03 0.03 86 1013.4
20260506202929 59 303 3.0 5.0 0.00 0.02 0.02 84 1013.3
20260506202426 58 24 3.0 11.0 0.00 0.02 0.02 83 1013.7
20260506201922 58 325 5.0 11.0 0.00 0.02 0.02 83 1013.5
20260506201420 58 331 3.0 5.0 0.00 0.02 0.02 83 1014.1
20260506200916 59 359 3.0 10.0 0.00 0.02 0.02 83 1013.9
20260506200413 58 326 4.0 7.0 0.00 0.02 0.02 83 1013.7
20260506195909 58 319 8.0 13.0 0.00 0.02 0.02 83 1013.9
20260506195407 58 348 8.0 8.0 0.00 0.02 0.02 83 1014.0
20260506194903 58 320 7.0 9.0 0.00 0.02 0.02 82 1014.3
20260506194400 59 297 1.0 4.0 0.00 0.02 0.02 82 1014.4
20260506193857 58 334 3.0 6.0 0.00 0.02 0.02 82 1013.7
20260506193354 59 304 6.0 7.0 0.00 0.02 0.02 81 1013.5
20260506192850 59 348 3.0 8.0 0.00 0.02 0.02 82 1013.5
20260506192347 59 308 6.0 12.0 0.00 0.02 0.02 82 1013.9
20260506191844 59 305 2.0 5.0 0.00 0.02 0.02 82 1014.1
20260506191340 59 314 4.0 7.0 0.00 0.02 0.02 82 1014.4
20260506190838 58 343 2.0 5.0 0.00 0.02 0.02 82 1014.2
20260506190334 59 350 2.0 6.0 0.00 0.02 0.02 81 1013.9
20260506185831 59 310 2.0 6.0 0.00 0.02 0.02 82 1013.6
20260506185328 59 269 0.0 4.0 0.00 0.02 0.02 81 1013.5
20260506184825 59 295 2.0 5.0 0.00 0.02 0.02 81 1013.1
20260506184322 59 341 4.0 5.0 0.00 0.02 0.02 81 1012.9
20260506183820 59 316 4.0 5.0 0.00 0.02 0.02 81 1013.9
20260506183314 59 282 0.0 2.0 0.00 0.02 0.02 81 1014.0
20260506182812 59 119 4.0 6.0 0.00 0.02 0.02 81 1013.7
20260506182309 59 51 3.0 4.0 0.00 0.02 0.02 81 1013.7
20260506181807 59 323 1.0 6.0 0.00 0.02 0.02 81 1013.4
20260506181304 59 124 3.0 4.0 0.00 0.02 0.02 81 1013.5
20260506180802 58 33 2.0 7.0 0.00 0.02 0.02 82 1013.0
20260506180257 58 293 4.0 7.0 0.00 0.02 0.02 82 1012.2
20260506175753 58 260 3.0 12.0 0.00 0.02 0.02 82 1011.8
20260506175251 58 345 3.0 6.0 0.00 0.02 0.02 82 1011.9
20260506174748 59 301 3.0 9.0 0.00 0.02 0.02 81 1012.0
20260506174245 59 328 4.0 7.0 0.00 0.02 0.02 80 1012.2
20260506173743 60 328 9.0 10.0 0.00 0.02 0.02 80 1012.6
20260506173239 59 274 3.0 7.0 0.00 0.02 0.02 80 1012.9
20260506172736 58 284 6.0 13.0 0.00 0.02 0.02 80 1013.9
20260506172233 58 280 2.0 5.0 0.00 0.02 0.02 81 1014.5
20260506171730 58 68 1.0 8.0 0.00 0.02 0.02 81 1014.8
20260506171228 59 294 1.0 3.0 0.00 0.02 0.02 81 1014.9
20260506170725 58 29 3.0 3.0 0.00 0.02 0.02 82 1014.9
20260506170221 58 23 5.0 5.0 0.00 0.02 0.02 82 1014.4
20260506165720 57 181 2.0 5.0 0.00 0.02 0.02 82 1013.3
20260506165216 57 331 3.0 6.0 0.00 0.02 0.02 82 1012.7
20260506164714 58 225 3.0 4.0 0.00 0.02 0.02 82 1012.9